FW4250 Weather Reports


Display with metric or nautical units.
time (UTC)temp
F
wind
direction
speed
MPH
gust
MPH
rain 1hr
in
rain 24hr
in
rain mn
in
humidity
%
barometer
mb
20260905054537 63 173 0.0 0.0 0.00 0.00 0.00 89 987.1
20260905054035 64 173 0.0 0.0 0.00 0.00 0.00 89 987.1
20260905053533 64 173 0.0 0.0 0.00 0.00 0.00 89 987.0
20260905053031 64 173 0.0 0.0 0.00 0.00 0.00 89 987.0
20260905052530 64 173 0.0 0.0 0.00 0.00 0.00 89 987.1
20260905052030 64 173 0.0 0.0 0.00 0.00 0.00 89 987.1
20260905051540 64 173 0.0 0.0 0.00 0.00 0.00 89 987.1
20260905051030 64 173 0.0 0.0 0.00 0.00 0.00 88 987.0
20260905050530 64 173 0.0 0.0 0.00 0.00 0.00 88 987.2
20260905050030 64 173 0.0 0.0 0.00 0.00 0.00 88 987.1
20260905045530 64 173 0.0 0.0 0.00 0.00 0.00 88 987.1
20260905045032 65 173 0.0 1.0 0.00 0.00 0.00 88 987.0
20260905044537 65 173 0.0 1.0 0.00 0.00 0.00 88 987.0
20260905044029 65 173 0.0 0.0 0.00 0.00 0.00 87 987.1
20260905043529 65 173 0.0 0.0 0.00 0.00 0.00 87 987.0
20260905043033 65 173 0.0 0.0 0.00 0.00 0.00 87 987.0
20260905042528 65 173 0.0 0.0 0.00 0.00 0.00 86 986.9
20260905042028 65 173 0.0 0.0 0.00 0.00 0.00 87 986.9
20260905041531 65 173 0.0 0.0 0.00 0.00 0.00 86 986.8
20260905041028 65 173 0.0 1.0 0.00 0.00 0.00 86 986.8
20260905040530 65 173 0.0 2.0 0.00 0.00 0.00 86 986.9
20260905040035 65 173 0.0 2.0 0.00 0.00 0.00 85 986.8
20260905035528 66 173 0.0 1.0 0.00 0.00 0.00 85 986.7
20260905035028 66 173 0.0 1.0 0.00 0.00 0.00 84 986.7
20260905034528 66 173 0.0 2.0 0.00 0.00 0.00 85 986.7
20260905034028 66 173 0.0 2.0 0.00 0.00 0.00 84 986.6
20260905033527 66 173 0.0 0.0 0.00 0.00 0.00 85 986.6
20260905033028 67 173 0.0 0.0 0.00 0.00 0.00 84 986.7
20260905032528 67 173 0.0 0.0 0.00 0.00 0.00 84 986.6
20260905032027 67 173 0.0 0.0 0.00 0.00 0.00 84 986.5
20260905031536 67 173 0.0 0.0 0.00 0.00 0.00 83 986.5
20260905031027 67 173 0.0 0.0 0.00 0.00 0.00 83 986.4
20260905030526 68 173 0.0 0.0 0.00 0.00 0.00 83 986.4
20260905030026 68 173 0.0 0.0 0.00 0.00 0.00 82 986.3
20260905025528 68 173 0.0 0.0 0.00 0.00 0.00 82 986.4
20260905025027 68 173 0.0 0.0 0.00 0.00 0.00 82 986.5
20260905024526 68 173 0.0 0.0 0.00 0.00 0.00 82 986.4
20260905024025 69 173 0.0 0.0 0.00 0.00 0.00 82 986.3
20260905023532 69 173 0.0 2.0 0.00 0.00 0.00 81 986.4
20260905023028 69 173 0.0 3.0 0.00 0.00 0.00 81 986.4
20260905022531 69 173 1.0 3.0 0.00 0.00 0.00 81 986.4
20260905022026 69 173 1.0 3.0 0.00 0.00 0.00 80 986.5
20260905021535 70 173 1.0 4.0 0.00 0.00 0.00 79 986.5
20260905021024 70 173 2.0 4.0 0.00 0.00 0.00 79 986.4
20260905020527 70 173 2.0 4.0 0.00 0.00 0.00 78 986.4
20260905020124 71 173 2.0 5.0 0.00 0.00 0.00 78 986.4
20260905015524 71 173 4.0 6.0 0.00 0.00 0.00 77 986.4
20260905015023 72 175 3.0 6.0 0.00 0.00 0.00 76 986.3
20260905014522 72 183 2.0 5.0 0.00 0.00 0.00 75 986.4
20260905014026 73 182 2.0 5.0 0.00 0.00 0.00 75 986.4
20260905013522 73 196 2.0 6.0 0.00 0.00 0.00 74 986.3
20260905013026 73 198 2.0 6.0 0.00 0.00 0.00 74 986.3
20260905012522 73 173 1.0 6.0 0.00 0.00 0.00 73 986.4
20260905012022 73 196 3.0 6.0 0.00 0.00 0.00 73 986.4
20260905011522 73 182 3.0 5.0 0.00 0.00 0.00 72 986.4
20260905011022 74 182 3.0 6.0 0.00 0.00 0.00 71 986.4
20260905010522 74 188 3.0 6.0 0.00 0.00 0.00 71 986.4
20260905010023 74 187 4.0 6.0 0.00 0.00 0.00 70 986.3
20260905005525 74 191 3.0 6.0 0.00 0.00 0.00 69 986.3
20260905005022 75 205 3.0 7.0 0.00 0.00 0.00 69 986.4
20260905004531 75 192 3.0 7.0 0.00 0.00 0.00 68 986.4
20260905004021 75 211 3.0 8.0 0.00 0.00 0.00 68 986.4
20260905003522 75 169 5.0 8.0 0.00 0.00 0.00 68 986.3
20260905003037 75 180 4.0 8.0 0.00 0.00 0.00 67 986.3
20260905002526 76 229 4.0 8.0 0.00 0.00 0.00 67 986.3
20260905002027 76 167 5.0 8.0 0.00 0.00 0.00 67 986.3
20260905001520 76 205 4.0 10.0 0.00 0.00 0.00 66 986.3
20260905001022 76 174 5.0 10.0 0.00 0.00 0.00 66 986.2
20260905000520 76 171 5.0 8.0 0.00 0.00 0.00 65 986.3
20260905000022 76 184 4.0 8.0 0.00 0.00 0.00 65 986.3
20260904235519 77 207 5.0 10.0 0.00 0.00 0.00 65 986.4
20260904235020 77 219 5.0 10.0 0.00 0.00 0.00 63 986.5
20260904234525 77 171 4.0 12.0 0.00 0.00 0.00 64 986.5
20260904234019 77 232 6.0 12.0 0.00 0.00 0.00 63 986.5
20260904233523 77 201 5.0 10.0 0.00 0.00 0.00 63 986.4
20260904233038 77 200 5.0 9.0 0.00 0.00 0.00 62 986.3
20260904232521 77 212 6.0 10.0 0.00 0.00 0.00 62 986.4
20260904232019 78 182 6.0 10.0 0.00 0.00 0.00 62 986.4
20260904231522 78 192 6.0 10.0 0.00 0.00 0.00 61 986.4
20260904231019 78 198 5.0 9.0 0.00 0.00 0.00 61 986.3
20260904230518 78 176 6.0 11.0 0.00 0.00 0.00 61 986.3
20260904230034 78 144 6.0 10.0 0.00 0.00 0.00 60 986.3
20260904225518 79 200 4.0 10.0 0.00 0.00 0.00 61 986.3
20260904225017 79 194 6.0 11.0 0.00 0.00 0.00 60 986.4
20260904224517 79 194 6.0 11.0 0.00 0.00 0.00 61 986.5
20260904224017 79 169 5.0 11.0 0.00 0.00 0.00 61 986.4
20260904223517 79 207 5.0 15.0 0.00 0.00 0.00 59 986.5
20260904223016 79 180 3.0 15.0 0.00 0.00 0.00 59 986.4
20260904222518 79 136 4.0 13.0 0.00 0.00 0.00 59 986.3
20260904222017 79 158 7.0 13.0 0.00 0.00 0.00 59 986.3
20260904221517 79 190 6.0 10.0 0.00 0.00 0.00 60 986.4
20260904221016 79 202 5.0 9.0 0.00 0.00 0.00 59 986.3
20260904220518 79 148 5.0 10.0 0.00 0.00 0.00 60 986.4
20260904220019 79 216 6.0 11.0 0.00 0.00 0.00 60 986.4
20260904215516 79 180 5.0 11.0 0.00 0.00 0.00 61 986.5
20260904215016 79 209 5.0 11.0 0.00 0.00 0.00 60 986.5
20260904214515 79 172 6.0 14.0 0.00 0.00 0.00 61 986.4
20260904214015 79 173 5.0 14.0 0.00 0.00 0.00 61 986.4
20260904213518 79 178 6.0 10.0 0.00 0.00 0.00 61 986.5
20260904213018 79 199 5.0 12.0 0.00 0.00 0.00 62 986.6
20260904212517 79 225 6.0 12.0 0.00 0.00 0.00 62 986.6
20260904212015 79 166 5.0 10.0 0.00 0.00 0.00 62 986.6
20260904211517 79 178 5.0 9.0 0.00 0.00 0.00 61 986.6
20260904211016 80 173 6.0 11.0 0.00 0.00 0.00 60 986.5
20260904210514 80 170 6.0 11.0 0.00 0.00 0.00 60 986.5
20260904210016 79 219 5.0 10.0 0.00 0.00 0.00 61 986.5
20260904205517 79 191 5.0 10.0 0.00 0.00 0.00 61 986.5
20260904205013 79 162 7.0 10.0 0.00 0.00 0.00 61 986.6
20260904204520 79 173 7.0 12.0 0.00 0.00 0.00 61 986.7
20260904204013 79 188 6.0 12.0 0.00 0.00 0.00 61 986.6
20260904203514 79 165 6.0 12.0 0.00 0.00 0.00 61 986.6
20260904203016 80 131 5.0 11.0 0.00 0.00 0.00 61 986.7
20260904202512 79 207 4.0 12.0 0.00 0.00 0.00 62 986.6
20260904202012 79 189 6.0 11.0 0.00 0.00 0.00 62 986.7
20260904201511 79 216 4.0 11.0 0.00 0.00 0.00 62 986.7
20260904201013 79 157 7.0 11.0 0.00 0.00 0.00 61 986.7
20260904200514 79 162 5.0 14.0 0.00 0.00 0.00 62 986.7
20260904200021 79 113 6.0 14.0 0.00 0.00 0.00 61 986.6
20260904195517 79 165 7.0 14.0 0.00 0.00 0.00 60 986.7
20260904195010 79 149 6.0 12.0 0.00 0.00 0.00 60 986.8
20260904194514 79 93 5.0 10.0 0.00 0.00 0.00 60 986.8
20260904194008 79 186 5.0 10.0 0.00 0.00 0.00 60 986.8
20260904193510 79 150 4.0 9.0 0.00 0.00 0.00 61 986.8
20260904193009 79 204 2.0 10.0 0.00 0.00 0.00 61 986.8
20260904192509 78 148 4.0 10.0 0.00 0.00 0.00 60 986.9
20260904192007 78 184 5.0 11.0 0.00 0.00 0.00 60 986.9
20260904191505 78 196 4.0 12.0 0.00 0.00 0.00 59 987.0
20260904191008 78 204 6.0 12.0 0.00 0.00 0.00 59 987.1
20260904190504 78 189 4.0 9.0 0.00 0.00 0.00 59 987.1
20260904190003 78 184 4.0 10.0 0.00 0.00 0.00 59 987.0
20260904185502 78 144 4.0 12.0 0.00 0.00 0.00 59 987.0
20260904185002 78 165 7.0 14.0 0.00 0.00 0.00 59 987.1
20260904184602 78 157 7.0 14.0 0.00 0.00 0.00 58 987.1
20260904184059 77 209 4.0 9.0 0.00 0.00 0.00 58 987.2
20260904183558 77 212 3.0 9.0 0.00 0.00 0.00 59 987.3
20260904183102 77 183 5.0 9.0 0.00 0.00 0.00 59 987.1
20260904182555 77 205 2.0 7.0 0.00 0.00 0.00 60 987.3
20260904182054 77 201 4.0 9.0 0.00 0.00 0.00 59 987.2
20260904181553 77 179 4.0 9.0 0.00 0.00 0.00 59 987.3
20260904181055 77 159 3.0 7.0 0.00 0.00 0.00 59 987.4
20260904180551 76 167 2.0 7.0 0.00 0.00 0.00 61 987.5
20260904180059 75 164 4.0 7.0 0.00 0.00 0.00 62 987.6
20260904175548 75 197 3.0 6.0 0.00 0.01 0.00 64 987.7
20260904175048 75 201 2.0 8.0 0.00 0.01 0.00 64 987.7
20260904174548 75 198 3.0 8.0 0.00 0.01 0.00 63 987.7
20260904174045 75 175 3.0 7.0 0.00 0.01 0.00 65 987.6
20260904173543 74 178 1.0 6.0 0.00 0.01 0.00 65 987.6
20260904173103 74 159 2.0 6.0 0.00 0.01 0.00 66 987.7
20260904172543 73 155 0.0 7.0 0.00 0.01 0.00 67 987.7
20260904172041 73 184 1.0 6.0 0.00 0.01 0.00 67 987.6
20260904171548 73 184 2.0 4.0 0.00 0.01 0.00 67 987.6
20260904171036 72 184 1.0 5.0 0.00 0.01 0.00 68 987.6
20260904170541 72 184 2.0 5.0 0.00 0.01 0.00 68 987.6
20260904170034 72 186 1.0 6.0 0.00 0.01 0.00 70 987.5
20260904165533 72 186 2.0 6.0 0.00 0.01 0.00 68 987.5
20260904165032 72 179 3.0 7.0 0.00 0.01 0.00 69 987.5
20260904164530 71 174 3.0 7.0 0.00 0.01 0.00 70 987.6
20260904164028 71 182 1.0 5.0 0.00 0.01 0.00 71 987.6
20260904163534 70 182 1.0 5.0 0.00 0.01 0.00 73 987.4
20260904163028 69 182 3.0 5.0 0.00 0.01 0.00 74 987.4
20260904162526 69 190 1.0 5.0 0.00 0.01 0.00 74 987.4
20260904162024 69 188 3.0 5.0 0.00 0.01 0.00 75 987.3
20260904161521 68 182 2.0 4.0 0.00 0.01 0.00 75 987.3
20260904161021 68 182 2.0 4.0 0.00 0.01 0.00 78 987.3
20260904160526 67 182 0.0 4.0 0.00 0.01 0.00 78 987.4
20260904160018 67 182 2.0 4.0 0.00 0.01 0.00 78 987.3
20260904155516 67 182 1.0 4.0 0.00 0.03 0.00 80 987.3
20260904155019 66 182 1.0 4.0 0.00 0.03 0.00 80 987.3
20260904154514 66 182 2.0 4.0 0.00 0.03 0.00 82 987.2
20260904154014 65 182 2.0 4.0 0.00 0.03 0.00 84 987.2
20260904153510 64 182 2.0 4.0 0.00 0.03 0.00 85 987.2
20260904153009 63 239 0.0 0.0 0.00 0.03 0.00 87 987.2
20260904152507 63 239 0.0 0.0 0.00 0.03 0.00 88 987.2
20260904152006 62 239 0.0 0.0 0.00 0.03 0.00 89 987.1
20260904151507 62 239 0.0 0.0 0.00 0.03 0.00 89 987.0
20260904151009 61 239 0.0 0.0 0.00 0.03 0.00 91 987.0
20260904150504 61 239 0.0 0.0 0.00 0.03 0.00 92 987.0
20260904150005 61 239 0.0 0.0 0.00 0.03 0.00 93 987.1
20260904145504 60 239 0.0 0.0 0.00 0.03 0.00 94 987.0
20260904145002 59 239 0.0 0.0 0.00 0.03 0.00 94 987.1
20260904144620 59 239 0.0 0.0 0.00 0.03 0.00 94 987.0
20260904144059 58 239 0.0 0.0 0.00 0.03 0.00 94 987.1
20260904143559 58 239 0.0 0.0 0.00 0.03 0.00 93 987.0
20260904143058 58 239 0.0 0.0 0.00 0.03 0.00 94 987.1
20260904142602 58 239 0.0 0.0 0.00 0.03 0.00 94 986.9
20260904142055 57 239 0.0 0.0 0.00 0.03 0.00 93 986.9
20260904141602 57 239 0.0 0.0 0.00 0.03 0.00 93 986.7
20260904141055 57 239 0.0 0.0 0.00 0.03 0.00 94 986.8
20260904140554 57 239 0.0 0.0 0.00 0.03 0.00 94 986.7
20260904140054 57 239 0.0 0.0 0.00 0.03 0.00 93 986.7
20260904135555 57 239 0.0 0.0 0.00 0.03 0.00 93 986.7
20260904135053 57 239 0.0 0.0 0.00 0.03 0.00 93 986.6
20260904134552 57 239 0.0 0.0 0.00 0.03 0.00 93 986.6
20260904134050 57 239 0.0 0.0 0.00 0.03 0.00 93 986.6
20260904133551 57 239 0.0 0.0 0.00 0.03 0.00 93 986.5
20260904133050 57 239 0.0 0.0 0.00 0.03 0.00 93 986.4
20260904132551 57 239 0.0 0.0 0.00 0.03 0.00 92 986.4
20260904132049 57 239 0.0 0.0 0.00 0.03 0.00 92 986.4
20260904131548 57 239 0.0 0.0 0.00 0.03 0.00 92 986.3
20260904131047 57 239 0.0 0.0 0.00 0.03 0.00 92 986.2
20260904130550 58 239 0.0 0.0 0.00 0.03 0.00 92 986.2
20260904130047 58 239 0.0 0.0 0.00 0.03 0.00 92 986.2
20260904125546 58 239 0.0 0.0 0.00 0.03 0.00 92 986.2
20260904125046 58 239 0.0 0.0 0.00 0.03 0.00 92 986.3
20260904124557 58 239 0.0 0.0 0.00 0.03 0.00 93 986.1
20260904124048 58 239 0.0 0.0 0.00 0.03 0.00 93 986.2
20260904123547 58 239 0.0 0.0 0.00 0.03 0.00 93 986.2
20260904123045 58 239 0.0 0.0 0.00 0.03 0.00 93 986.2
20260904122545 58 239 0.0 0.0 0.00 0.03 0.00 92 986.3
20260904122045 58 239 0.0 0.0 0.00 0.03 0.00 92 986.2
20260904121545 58 239 0.0 0.0 0.00 0.03 0.00 92 986.1
20260904121044 58 239 0.0 0.0 0.00 0.03 0.00 92 986.0
20260904120552 58 239 0.0 0.0 0.00 0.03 0.00 92 986.0
20260904120048 58 239 0.0 0.0 0.00 0.03 0.00 92 986.0
20260904115544 58 239 0.0 0.0 0.00 0.03 0.00 92 986.0
20260904115045 58 239 0.0 0.0 0.00 0.03 0.00 92 986.0
20260904114546 58 239 0.0 0.0 0.00 0.03 0.00 91 986.1
20260904114043 58 239 0.0 0.0 0.00 0.03 0.00 91 986.0
20260904113542 58 239 0.0 0.0 0.00 0.03 0.00 91 986.0
20260904112541 58 239 0.0 0.0 0.00 0.03 0.00 91 986.0
20260904112042 59 239 0.0 0.0 0.00 0.03 0.00 91 986.1
20260904111540 59 239 0.0 0.0 0.00 0.03 0.00 91 986.0
20260904111040 59 239 0.0 0.0 0.00 0.03 0.00 91 985.9
20260904110540 59 239 0.0 0.0 0.00 0.03 0.00 91 985.9
20260904110040 59 239 0.0 0.0 0.00 0.03 0.00 90 985.9
20260904105539 59 239 0.0 0.0 0.00 0.03 0.00 91 985.9
20260904105038 59 239 0.0 0.0 0.00 0.03 0.00 91 986.0
20260904104539 59 239 0.0 0.0 0.00 0.03 0.00 91 986.0
20260904104038 59 239 0.0 0.0 0.00 0.03 0.00 91 985.9
20260904103541 59 239 0.0 0.0 0.00 0.03 0.00 91 986.0
20260904103042 59 239 0.0 0.0 0.00 0.03 0.00 91 985.9
20260904102539 59 239 0.0 0.0 0.00 0.03 0.00 91 985.9
20260904102038 59 239 0.0 0.0 0.00 0.03 0.00 91 986.0
20260904101538 59 239 0.0 0.0 0.00 0.03 0.00 91 986.0
20260904101038 59 239 0.0 0.0 0.00 0.03 0.00 91 985.9
20260904100540 59 239 0.0 0.0 0.00 0.03 0.00 91 985.9
20260904100038 59 239 0.0 0.0 0.00 0.03 0.00 91 986.0
20260904095538 59 239 0.0 0.0 0.00 0.03 0.00 91 985.9
20260904095039 59 239 0.0 0.0 0.00 0.03 0.00 90 985.9
20260904094545 59 239 0.0 0.0 0.00 0.03 0.00 90 985.9
20260904094036 59 239 0.0 0.0 0.00 0.03 0.00 90 985.8
20260904093540 59 239 0.0 0.0 0.00 0.03 0.00 90 985.8
20260904093036 60 239 0.0 0.0 0.00 0.03 0.00 90 985.8
20260904092535 60 239 0.0 0.0 0.00 0.03 0.00 90 985.9
20260904092034 60 239 0.0 0.0 0.00 0.03 0.00 89 986.0
20260904091535 60 239 0.0 0.0 0.00 0.03 0.00 89 985.9
20260904091034 60 239 0.0 0.0 0.00 0.03 0.00 88 985.9
20260904090534 60 239 0.0 0.0 0.00 0.03 0.00 88 986.0
20260904090032 60 239 0.0 0.0 0.00 0.03 0.00 88 986.1
20260904085531 60 239 0.0 0.0 0.00 0.03 0.00 88 986.1
20260904085033 60 239 0.0 0.0 0.00 0.03 0.00 88 986.2
20260904084530 60 239 0.0 0.0 0.00 0.03 0.00 88 986.2
20260904084029 61 239 0.0 0.0 0.00 0.03 0.00 88 986.3
20260904083526 61 239 0.0 0.0 0.00 0.03 0.00 88 986.4
20260904083026 61 239 0.0 0.0 0.00 0.03 0.00 88 986.4
20260904082525 61 239 0.0 0.0 0.00 0.03 0.00 88 986.5
20260904082025 61 239 0.0 0.0 0.00 0.03 0.00 89 986.5
20260904081525 61 239 0.0 0.0 0.00 0.03 0.00 88 986.4
20260904081024 61 239 0.0 0.0 0.00 0.03 0.00 87 986.5
20260904080523 61 239 0.0 0.0 0.00 0.03 0.00 87 986.4
20260904080023 61 239 0.0 0.0 0.00 0.03 0.00 86 986.4
20260904075523 61 239 0.0 0.0 0.00 0.03 0.00 87 986.6
20260904075023 61 239 0.0 0.0 0.00 0.03 0.00 87 986.5
20260904074526 61 239 0.0 0.0 0.00 0.03 0.00 87 986.5
20260904074021 61 239 0.0 0.0 0.00 0.03 0.00 87 986.4
20260904073520 61 239 0.0 0.0 0.00 0.03 0.00 87 986.3
20260904073020 61 239 0.0 0.0 0.00 0.03 0.00 86 986.3
20260904072520 62 239 0.0 0.0 0.00 0.03 0.00 85 986.2
20260904072018 62 239 0.0 0.0 0.00 0.03 0.00 86 986.1
20260904071522 62 239 0.0 1.0 0.00 0.03 0.00 86 986.0
20260904071020 62 239 0.0 1.0 0.00 0.03 0.00 86 986.1
20260904070515 62 239 0.0 0.0 0.00 0.03 0.00 86 985.9
20260904070018 62 239 0.0 0.0 0.00 0.03 0.00 86 986.0
20260904065515 62 239 0.0 0.0 0.00 0.03 0.03 86 986.0
20260904065015 62 239 0.0 0.0 0.00 0.03 0.03 86 986.0
20260904064515 62 239 0.0 0.0 0.00 0.03 0.03 86 985.9
20260904064017 62 239 0.0 0.0 0.00 0.03 0.03 86 985.9
20260904063515 62 239 0.0 0.0 0.00 0.03 0.03 86 985.9
20260904063015 62 239 0.0 0.0 0.00 0.03 0.03 86 985.9
20260904062515 62 239 0.0 0.0 0.00 0.03 0.03 86 985.8
20260904062014 62 239 0.0 0.0 0.00 0.03 0.03 85 985.9
20260904061514 62 239 0.0 0.0 0.00 0.03 0.03 85 985.9
20260904061017 62 239 0.0 0.0 0.00 0.03 0.03 85 985.8
20260904060514 63 239 0.0 0.0 0.00 0.03 0.03 85 985.7
20260904060014 63 239 0.0 0.0 0.00 0.03 0.03 85 985.7
20260904055513 63 239 0.0 0.0 0.00 0.03 0.03 84 985.8
20260904055013 63 239 0.0 0.0 0.00 0.03 0.03 85 985.7